owner,sensor,date,latitude,longitude,relative_humidity,qcFlag 
DISL,ioos:station:DISL:MBLA:1,2017-01-01T00:30:00Z,30.4367,-88.0117,79.95,1111122 
DISL,ioos:station:DISL:MBLA:1,2017-01-01T01:30:00Z,30.4367,-88.0117,77.51,1111122 
DISL,ioos:station:DISL:MBLA:1,2017-01-01T02:30:00Z,30.4367,-88.0117,75.85,1111122 
DISL,ioos:station:DISL:MBLA:1,2017-01-01T03:30:00Z,30.4367,-88.0117,,1111122 
DISL,ioos:station:DISL:MBLA:1,2017-01-01T04:30:00Z,30.4367,-88.0117,67.48,1111122 
DISL,ioos:station:DISL:MBLA:1,2017-01-01T05:00:00Z,30.4367,-88.0117,65.44,1111122 
DISL,ioos:station:DISL:MBLA:1,2017-01-01T06:30:00Z,30.4367,-88.0117,100.0,1111122 
DISL,ioos:station:DISL:MBLA:1,2017-01-01T07:00:00Z,30.4367,-88.0117,110.8,1111122 
DISL,ioos:station:DISL:MBLA:1,2017-01-01T07:30:00Z,30.4367,-88.0117,100.0,1111122 
DISL,ioos:station:DISL:MBLA:1,2017-01-01T08:00:00Z,30.4367,-88.0117,100.0,1111122 
DISL,ioos:station:DISL:MBLA:1,2017-01-01T08:30:00Z,30.4367,-88.0117,100.0,1111122 
DISL,ioos:station:DISL:MBLA:1,2017-01-01T09:00:00Z,30.4367,-88.0117,100.0,1111122 
DISL,ioos:station:DISL:MBLA:1,2017-01-01T09:30:00Z,30.4367,-88.0117,100.0,1111122 
DISL,ioos:station:DISL:MBLA:1,2017-01-01T10:00:00Z,30.4367,-88.0117,100.0,1111122 
DISL,ioos:station:DISL:MBLA:1,2017-01-01T10:30:00Z,30.4367,-88.0117,100.0,1111122 
DISL,ioos:station:DISL:MBLA:1,2017-01-01T11:00:00Z,30.4367,-88.0117,100.0,1111122 
DISL,ioos:station:DISL:MBLA:1,2017-01-01T11:30:00Z,30.4367,-88.0117,100.0,1111122 
DISL,ioos:station:DISL:MBLA:1,2017-01-01T12:00:00Z,30.4367,-88.0117,100.0,1111122 
DISL,ioos:station:DISL:MBLA:1,2017-01-01T12:30:00Z,30.4367,-88.0117,100.0,1111122 
DISL,ioos:station:DISL:MBLA:1,2017-01-01T13:00:00Z,30.4367,-88.0117,100.0,1111122 
DISL,ioos:station:DISL:MBLA:1,2017-01-01T13:30:00Z,30.4367,-88.0117,100.0,1111122 
DISL,ioos:station:DISL:MBLA:1,2017-01-01T14:00:00Z,30.4367,-88.0117,100.0,1111122 
DISL,ioos:station:DISL:MBLA:1,2017-01-01T14:30:00Z,30.4367,-88.0117,100.0,1111122 
DISL,ioos:station:DISL:MBLA:1,2017-01-01T15:00:00Z,30.4367,-88.0117,100.0,1111122 
DISL,ioos:station:DISL:MBLA:1,2017-01-01T15:30:00Z,30.4367,-88.0117,100.0,1111122 
DISL,ioos:station:DISL:MBLA:1,2017-01-01T16:00:00Z,30.4367,-88.0117,100.0,1111122 
DISL,ioos:station:DISL:MBLA:1,2017-01-01T16:30:00Z,30.4367,-88.0117,100.0,1111122 
DISL,ioos:station:DISL:MBLA:1,2017-01-01T17:00:00Z,30.4367,-88.0117,100.0,1111122 
DISL,ioos:station:DISL:MBLA:1,2017-01-01T17:30:00Z,30.4367,-88.0117,100.0,1111122 
DISL,ioos:station:DISL:MBLA:1,2017-01-01T18:00:00Z,30.4367,-88.0117,100.0,1111122 
DISL,ioos:station:DISL:MBLA:1,2017-01-01T18:30:00Z,30.4367,-88.0117,100.0,1111122 
DISL,ioos:station:DISL:MBLA:1,2017-01-01T19:00:00Z,30.4367,-88.0117,100.0,1111122 
DISL,ioos:station:DISL:MBLA:1,2017-01-01T19:30:00Z,30.4367,-88.0117,100.0,1111122 
DISL,ioos:station:DISL:MBLA:1,2017-01-01T20:00:00Z,30.4367,-88.0117,100.0,1111122 
DISL,ioos:station:DISL:MBLA:1,2017-01-01T20:30:00Z,30.4367,-88.0117,100.0,1111122 
DISL,ioos:station:DISL:MBLA:1,2017-01-01T21:00:00Z,30.4367,-88.0117,100.0,1111122 
DISL,ioos:station:DISL:MBLA:1,2017-01-01T21:30:00Z,30.4367,-88.0117,100.0,1111122 
DISL,ioos:station:DISL:MBLA:1,2017-01-01T22:00:00Z,30.4367,-88.0117,100.0,1111122 
DISL,ioos:station:DISL:MBLA:1,2017-01-01T22:30:00Z,30.4367,-88.0117,100.0,1111122 
DISL,ioos:station:DISL:MBLA:1,2017-01-01T23:00:00Z,30.4367,-88.0117,100.0,1111122 
DISL,ioos:station:DISL:MBLA:1,2017-01-01T23:30:00Z,30.4367,-88.0117,100.0,1111122 
DISL,ioos:station:DISL:MBLA:1,2017-01-02T00:00:00Z,30.4367,-88.0117,100.0,1111122 
DISL,ioos:station:DISL:MBLA:1,2017-01-02T00:30:00Z,30.4367,-88.0117,100.0,1111122 
DISL,ioos:station:DISL:MBLA:1,2017-01-02T01:00:00Z,30.4367,-88.0117,100.0,1111122 
DISL,ioos:station:DISL:MBLA:1,2017-01-02T01:30:00Z,30.4367,-88.0117,100.0,1111122 
DISL,ioos:station:DISL:MBLA:1,2017-01-02T02:00:00Z,30.4367,-88.0117,100.0,1111122 
DISL,ioos:station:DISL:MBLA:1,2017-01-02T02:30:00Z,30.4367,-88.0117,100.0,1111122 
DISL,ioos:station:DISL:MBLA:1,2017-01-02T03:00:00Z,30.4367,-88.0117,100.0,1111122 
DISL,ioos:station:DISL:MBLA:1,2017-01-02T03:30:00Z,30.4367,-88.0117,100.0,1111122 
DISL,ioos:station:DISL:MBLA:1,2017-01-02T04:00:00Z,30.4367,-88.0117,100.0,1111122 
DISL,ioos:station:DISL:MBLA:1,2017-01-02T04:30:00Z,30.4367,-88.0117,100.0,1111122 
DISL,ioos:station:DISL:MBLA:1,2017-01-02T05:00:00Z,30.4367,-88.0117,100.0,1111122 
DISL,ioos:station:DISL:MBLA:1,2017-01-02T05:30:00Z,30.4367,-88.0117,100.0,1111122 
DISL,ioos:station:DISL:MBLA:1,2017-01-02T06:00:00Z,30.4367,-88.0117,100.0,1111122 
DISL,ioos:station:DISL:MBLA:1,2017-01-02T06:30:00Z,30.4367,-88.0117,100.0,1111122 
DISL,ioos:station:DISL:MBLA:1,2017-01-02T07:00:00Z,30.4367,-88.0117,100.0,1111122 
DISL,ioos:station:DISL:MBLA:1,2017-01-02T07:30:00Z,30.4367,-88.0117,100.0,1111122 
DISL,ioos:station:DISL:MBLA:1,2017-01-02T08:00:00Z,30.4367,-88.0117,100.0,1111122 
DISL,ioos:station:DISL:MBLA:1,2017-01-02T08:30:00Z,30.4367,-88.0117,100.0,1111122 
DISL,ioos:station:DISL:MBLA:1,2017-01-02T09:00:00Z,30.4367,-88.0117,100.0,1111122 
DISL,ioos:station:DISL:MBLA:1,2017-01-02T09:30:00Z,30.4367,-88.0117,100.0,1111122 
DISL,ioos:station:DISL:MBLA:1,2017-01-02T10:00:00Z,30.4367,-88.0117,100.0,1111122 
DISL,ioos:station:DISL:MBLA:1,2017-01-02T10:30:00Z,30.4367,-88.0117,100.0,1111122 
DISL,ioos:station:DISL:MBLA:1,2017-01-02T11:00:00Z,30.4367,-88.0117,100.0,1111122 
DISL,ioos:station:DISL:MBLA:1,2017-01-02T11:30:00Z,30.4367,-88.0117,100.0,1111122 
DISL,ioos:station:DISL:MBLA:1,2017-01-02T12:00:00Z,30.4367,-88.0117,100.0,1111122 
DISL,ioos:station:DISL:MBLA:1,2017-01-02T12:30:00Z,30.4367,-88.0117,100.0,1111122 
DISL,ioos:station:DISL:MBLA:1,2017-01-02T13:00:00Z,30.4367,-88.0117,100.0,1111122 
DISL,ioos:station:DISL:MBLA:1,2017-01-02T13:30:00Z,30.4367,-88.0117,100.0,1111122 
DISL,ioos:station:DISL:MBLA:1,2017-01-02T14:00:00Z,30.4367,-88.0117,100.0,1111122 
DISL,ioos:station:DISL:MBLA:1,2017-01-02T14:30:00Z,30.4367,-88.0117,100.0,1111122 
DISL,ioos:station:DISL:MBLA:1,2017-01-02T15:00:00Z,30.4367,-88.0117,100.0,1111122 
DISL,ioos:station:DISL:MBLA:1,2017-01-02T15:30:00Z,30.4367,-88.0117,100.0,1111122 
DISL,ioos:station:DISL:MBLA:1,2017-01-02T16:00:00Z,30.4367,-88.0117,100.0,1111122 
DISL,ioos:station:DISL:MBLA:1,2017-01-02T16:30:00Z,30.4367,-88.0117,100.0,1111122 
DISL,ioos:station:DISL:MBLA:1,2017-01-02T17:00:00Z,30.4367,-88.0117,100.0,1111122 
DISL,ioos:station:DISL:MBLA:1,2017-01-02T17:30:00Z,30.4367,-88.0117,100.0,1111122 
DISL,ioos:station:DISL:MBLA:1,2017-01-02T18:00:00Z,30.4367,-88.0117,100.0,1111122 
DISL,ioos:station:DISL:MBLA:1,2017-01-02T18:30:00Z,30.4367,-88.0117,100.0,1111122 
DISL,ioos:station:DISL:MBLA:1,2017-01-02T19:00:00Z,30.4367,-88.0117,100.0,1111122 
DISL,ioos:station:DISL:MBLA:1,2017-01-02T19:30:00Z,30.4367,-88.0117,100.0,1111122 
DISL,ioos:station:DISL:MBLA:1,2017-01-02T20:00:00Z,30.4367,-88.0117,100.0,1111122 
DISL,ioos:station:DISL:MBLA:1,2017-01-02T20:30:00Z,30.4367,-88.0117,100.0,1111122 
DISL,ioos:station:DISL:MBLA:1,2017-01-02T21:00:00Z,30.4367,-88.0117,76.17,1111122 
DISL,ioos:station:DISL:MBLA:1,2017-01-02T21:30:00Z,30.4367,-88.0117,76.82,1111122 
DISL,ioos:station:DISL:MBLA:1,2017-01-02T22:00:00Z,30.4367,-88.0117,92.6,1111122 
DISL,ioos:station:DISL:MBLA:1,2017-01-02T22:30:00Z,30.4367,-88.0117,95.0,1111122 
DISL,ioos:station:DISL:MBLA:1,2017-01-02T23:00:00Z,30.4367,-88.0117,96.0,1111122 
DISL,ioos:station:DISL:MBLA:1,2017-01-02T23:30:00Z,30.4367,-88.0117,100.0,1111122 
DISL,ioos:station:DISL:MBLA:1,2017-01-03T00:00:00Z,30.4367,-88.0117,100.0,1111122 
DISL,ioos:station:DISL:MBLA:1,2017-01-03T00:30:00Z,30.4367,-88.0117,100.0,1111122 
DISL,ioos:station:DISL:MBLA:1,2017-01-03T01:00:00Z,30.4367,-88.0117,100.0,1111122 
DISL,ioos:station:DISL:MBLA:1,2017-01-03T01:30:00Z,30.4367,-88.0117,100.0,1111122 
DISL,ioos:station:DISL:MBLA:1,2017-01-03T02:00:00Z,30.4367,-88.0117,100.0,1111122 
DISL,ioos:station:DISL:MBLA:1,2017-01-03T02:30:00Z,30.4367,-88.0117,100.0,1111122 
DISL,ioos:station:DISL:MBLA:1,2017-01-03T03:00:00Z,30.4367,-88.0117,100.0,1111122 
DISL,ioos:station:DISL:MBLA:1,2017-01-03T03:30:00Z,30.4367,-88.0117,100.0,1111122 
DISL,ioos:station:DISL:MBLA:1,2017-01-03T04:00:00Z,30.4367,-88.0117,100.0,1111122 
DISL,ioos:station:DISL:MBLA:1,2017-01-03T04:30:00Z,30.4367,-88.0117,100.0,1111122 
DISL,ioos:station:DISL:MBLA:1,2017-01-03T05:00:00Z,30.4367,-88.0117,100.0,1111122 
DISL,ioos:station:DISL:MBLA:1,2017-01-03T05:30:00Z,30.4367,-88.0117,100.0,1111122 
DISL,ioos:station:DISL:MBLA:1,2017-01-03T06:00:00Z,30.4367,-88.0117,100.0,1111122 
DISL,ioos:station:DISL:MBLA:1,2017-01-03T06:30:00Z,30.4367,-88.0117,100.0,1111122 
DISL,ioos:station:DISL:MBLA:1,2017-01-03T07:00:00Z,30.4367,-88.0117,100.0,1111122 
DISL,ioos:station:DISL:MBLA:1,2017-01-03T07:30:00Z,30.4367,-88.0117,100.0,1111122 
DISL,ioos:station:DISL:MBLA:1,2017-01-03T08:00:00Z,30.4367,-88.0117,100.0,1111122 
DISL,ioos:station:DISL:MBLA:1,2017-01-03T08:30:00Z,30.4367,-88.0117,100.0,1111122 
DISL,ioos:station:DISL:MBLA:1,2017-01-03T09:00:00Z,30.4367,-88.0117,100.0,1111122 
DISL,ioos:station:DISL:MBLA:1,2017-01-03T09:30:00Z,30.4367,-88.0117,100.0,1111122 
DISL,ioos:station:DISL:MBLA:1,2017-01-03T10:00:00Z,30.4367,-88.0117,100.0,1111122 
DISL,ioos:station:DISL:MBLA:1,2017-01-03T10:30:00Z,30.4367,-88.0117,100.0,1111122 
DISL,ioos:station:DISL:MBLA:1,2017-01-03T11:00:00Z,30.4367,-88.0117,100.0,1111122 
DISL,ioos:station:DISL:MBLA:1,2017-01-03T11:30:00Z,30.4367,-88.0117,100.0,1111122 
DISL,ioos:station:DISL:MBLA:1,2017-01-03T12:00:00Z,30.4367,-88.0117,100.0,1111122 
DISL,ioos:station:DISL:MBLA:1,2017-01-03T12:30:00Z,30.4367,-88.0117,100.0,1111122 
DISL,ioos:station:DISL:MBLA:1,2017-01-03T13:00:00Z,30.4367,-88.0117,100.0,1111122 
DISL,ioos:station:DISL:MBLA:1,2017-01-03T13:30:00Z,30.4367,-88.0117,100.0,1111122 
DISL,ioos:station:DISL:MBLA:1,2017-01-03T14:00:00Z,30.4367,-88.0117,100.0,1111122 
DISL,ioos:station:DISL:MBLA:1,2017-01-03T14:30:00Z,30.4367,-88.0117,94.2,1111122 
DISL,ioos:station:DISL:MBLA:1,2017-01-03T15:00:00Z,30.4367,-88.0117,87.0,1111122 
DISL,ioos:station:DISL:MBLA:1,2017-01-03T15:30:00Z,30.4367,-88.0117,86.0,1111122 
DISL,ioos:station:DISL:MBLA:1,2017-01-03T16:00:00Z,30.4367,-88.0117,86.4,1111122 
DISL,ioos:station:DISL:MBLA:1,2017-01-03T16:30:00Z,30.4367,-88.0117,86.3,1111122 
DISL,ioos:station:DISL:MBLA:1,2017-01-03T17:00:00Z,30.4367,-88.0117,89.6,1111122 
DISL,ioos:station:DISL:MBLA:1,2017-01-03T17:30:00Z,30.4367,-88.0117,88.7,1111122 
DISL,ioos:station:DISL:MBLA:1,2017-01-03T18:00:00Z,30.4367,-88.0117,88.6,1111122 
DISL,ioos:station:DISL:MBLA:1,2017-01-03T18:30:00Z,30.4367,-88.0117,90.1,1111122 
DISL,ioos:station:DISL:MBLA:1,2017-01-03T19:00:00Z,30.4367,-88.0117,92.0,1111122 
DISL,ioos:station:DISL:MBLA:1,2017-01-03T19:30:00Z,30.4367,-88.0117,92.5,1111122 
DISL,ioos:station:DISL:MBLA:1,2017-01-03T20:00:00Z,30.4367,-88.0117,93.9,1111122 
DISL,ioos:station:DISL:MBLA:1,2017-01-03T20:30:00Z,30.4367,-88.0117,93.6,1111122 
DISL,ioos:station:DISL:MBLA:1,2017-01-03T21:00:00Z,30.4367,-88.0117,91.0,1111122 
DISL,ioos:station:DISL:MBLA:1,2017-01-03T21:30:00Z,30.4367,-88.0117,93.9,1111122 
DISL,ioos:station:DISL:MBLA:1,2017-01-03T22:00:00Z,30.4367,-88.0117,95.0,1111122 
DISL,ioos:station:DISL:MBLA:1,2017-01-03T22:30:00Z,30.4367,-88.0117,93.2,1111122 
DISL,ioos:station:DISL:MBLA:1,2017-01-03T23:00:00Z,30.4367,-88.0117,95.1,1111122 
DISL,ioos:station:DISL:MBLA:1,2017-01-03T23:30:00Z,30.4367,-88.0117,96.8,1111122 
DISL,ioos:station:DISL:MBLA:1,2017-01-04T00:00:00Z,30.4367,-88.0117,100.0,1111122 
DISL,ioos:station:DISL:MBLA:1,2017-01-04T00:30:00Z,30.4367,-88.0117,100.0,1111122 
DISL,ioos:station:DISL:MBLA:1,2017-01-04T01:00:00Z,30.4367,-88.0117,100.0,1111122 
DISL,ioos:station:DISL:MBLA:1,2017-01-04T01:30:00Z,30.4367,-88.0117,100.0,1111122 
DISL,ioos:station:DISL:MBLA:1,2017-01-04T02:00:00Z,30.4367,-88.0117,100.0,1111122 
DISL,ioos:station:DISL:MBLA:1,2017-01-04T02:30:00Z,30.4367,-88.0117,100.0,1111122 
DISL,ioos:station:DISL:MBLA:1,2017-01-04T03:00:00Z,30.4367,-88.0117,100.0,1111122 
DISL,ioos:station:DISL:MBLA:1,2017-01-04T03:30:00Z,30.4367,-88.0117,100.0,1111122 
DISL,ioos:station:DISL:MBLA:1,2017-01-04T04:00:00Z,30.4367,-88.0117,100.0,1111122 
DISL,ioos:station:DISL:MBLA:1,2017-01-04T04:30:00Z,30.4367,-88.0117,100.0,1111122 
DISL,ioos:station:DISL:MBLA:1,2017-01-04T05:00:00Z,30.4367,-88.0117,100.0,1111122 
DISL,ioos:station:DISL:MBLA:1,2017-01-04T05:30:00Z,30.4367,-88.0117,100.0,1111122 
DISL,ioos:station:DISL:MBLA:1,2017-01-04T06:00:00Z,30.4367,-88.0117,100.0,1111122 
DISL,ioos:station:DISL:MBLA:1,2017-01-04T06:30:00Z,30.4367,-88.0117,100.0,1111122 
DISL,ioos:station:DISL:MBLA:1,2017-01-04T07:00:00Z,30.4367,-88.0117,100.0,1111122 
DISL,ioos:station:DISL:MBLA:1,2017-01-04T07:30:00Z,30.4367,-88.0117,100.0,1111122 
DISL,ioos:station:DISL:MBLA:1,2017-01-04T08:00:00Z,30.4367,-88.0117,100.0,1111122 
DISL,ioos:station:DISL:MBLA:1,2017-01-04T08:30:00Z,30.4367,-88.0117,100.0,1111122 
DISL,ioos:station:DISL:MBLA:1,2017-01-04T09:00:00Z,30.4367,-88.0117,100.0,1111122 
DISL,ioos:station:DISL:MBLA:1,2017-01-04T09:30:00Z,30.4367,-88.0117,96.1,1111122 
DISL,ioos:station:DISL:MBLA:1,2017-01-04T10:00:00Z,30.4367,-88.0117,95.6,1111122 
DISL,ioos:station:DISL:MBLA:1,2017-01-04T10:30:00Z,30.4367,-88.0117,93.4,1111122 
DISL,ioos:station:DISL:MBLA:1,2017-01-04T11:00:00Z,30.4367,-88.0117,91.9,1111122 
DISL,ioos:station:DISL:MBLA:1,2017-01-04T11:30:00Z,30.4367,-88.0117,92.7,1111122 
DISL,ioos:station:DISL:MBLA:1,2017-01-04T12:00:00Z,30.4367,-88.0117,90.8,1111122 
DISL,ioos:station:DISL:MBLA:1,2017-01-04T12:30:00Z,30.4367,-88.0117,89.9,1111122 
DISL,ioos:station:DISL:MBLA:1,2017-01-04T13:00:00Z,30.4367,-88.0117,88.1,1111122 
DISL,ioos:station:DISL:MBLA:1,2017-01-04T13:30:00Z,30.4367,-88.0117,87.8,1111122 
DISL,ioos:station:DISL:MBLA:1,2017-01-04T14:00:00Z,30.4367,-88.0117,84.5,1111122 
DISL,ioos:station:DISL:MBLA:1,2017-01-04T14:30:00Z,30.4367,-88.0117,85.2,1111122 
DISL,ioos:station:DISL:MBLA:1,2017-01-04T15:00:00Z,30.4367,-88.0117,81.0,1111122 
DISL,ioos:station:DISL:MBLA:1,2017-01-04T15:30:00Z,30.4367,-88.0117,81.3,1111122 
DISL,ioos:station:DISL:MBLA:1,2017-01-04T16:00:00Z,30.4367,-88.0117,80.3,1111122 
DISL,ioos:station:DISL:MBLA:1,2017-01-04T16:30:00Z,30.4367,-88.0117,79.84,1111122 
DISL,ioos:station:DISL:MBLA:1,2017-01-04T17:00:00Z,30.4367,-88.0117,77.77,1111122 
DISL,ioos:station:DISL:MBLA:1,2017-01-04T17:30:00Z,30.4367,-88.0117,74.48,1111122 
DISL,ioos:station:DISL:MBLA:1,2017-01-04T18:00:00Z,30.4367,-88.0117,70.14,1111122 
DISL,ioos:station:DISL:MBLA:1,2017-01-04T18:30:00Z,30.4367,-88.0117,67.87,1111122 
DISL,ioos:station:DISL:MBLA:1,2017-01-04T19:00:00Z,30.4367,-88.0117,63.66,1111122 
DISL,ioos:station:DISL:MBLA:1,2017-01-04T19:30:00Z,30.4367,-88.0117,64.13,1111122 
DISL,ioos:station:DISL:MBLA:1,2017-01-04T20:00:00Z,30.4367,-88.0117,66.98,1111122 
DISL,ioos:station:DISL:MBLA:1,2017-01-04T20:30:00Z,30.4367,-88.0117,64.24,1111122 
DISL,ioos:station:DISL:MBLA:1,2017-01-04T21:00:00Z,30.4367,-88.0117,59.69,1111122 
DISL,ioos:station:DISL:MBLA:1,2017-01-04T21:30:00Z,30.4367,-88.0117,64.61,1111122 
DISL,ioos:station:DISL:MBLA:1,2017-01-04T22:00:00Z,30.4367,-88.0117,69.49,1111122 
DISL,ioos:station:DISL:MBLA:1,2017-01-04T22:30:00Z,30.4367,-88.0117,66.32,1111122 
DISL,ioos:station:DISL:MBLA:1,2017-01-04T23:00:00Z,30.4367,-88.0117,70.09,1111122 
DISL,ioos:station:DISL:MBLA:1,2017-01-04T23:30:00Z,30.4367,-88.0117,71.83,1111122 
DISL,ioos:station:DISL:MBLA:1,2017-01-05T00:00:00Z,30.4367,-88.0117,71.7,1111122 
DISL,ioos:station:DISL:MBLA:1,2017-01-05T00:30:00Z,30.4367,-88.0117,74.59,1111122 
DISL,ioos:station:DISL:MBLA:1,2017-01-05T01:00:00Z,30.4367,-88.0117,72.96,1111122 
DISL,ioos:station:DISL:MBLA:1,2017-01-05T01:30:00Z,30.4367,-88.0117,74.73,1111122 
DISL,ioos:station:DISL:MBLA:1,2017-01-05T02:00:00Z,30.4367,-88.0117,73.54,1111122 
DISL,ioos:station:DISL:MBLA:1,2017-01-05T02:30:00Z,30.4367,-88.0117,75.48,1111122 
DISL,ioos:station:DISL:MBLA:1,2017-01-05T03:00:00Z,30.4367,-88.0117,72.05,1111122 
DISL,ioos:station:DISL:MBLA:1,2017-01-05T03:30:00Z,30.4367,-88.0117,72.97,1111122 
DISL,ioos:station:DISL:MBLA:1,2017-01-05T04:00:00Z,30.4367,-88.0117,74.16,1111122 
DISL,ioos:station:DISL:MBLA:1,2017-01-05T04:30:00Z,30.4367,-88.0117,72.97,1111122 
DISL,ioos:station:DISL:MBLA:1,2017-01-05T05:00:00Z,30.4367,-88.0117,73.95,1111122 
DISL,ioos:station:DISL:MBLA:1,2017-01-05T05:30:00Z,30.4367,-88.0117,73.56,1111122 
DISL,ioos:station:DISL:MBLA:1,2017-01-05T06:00:00Z,30.4367,-88.0117,74.81,1111122 
DISL,ioos:station:DISL:MBLA:1,2017-01-05T06:30:00Z,30.4367,-88.0117,78.48,1111122 
DISL,ioos:station:DISL:MBLA:1,2017-01-05T07:00:00Z,30.4367,-88.0117,76.72,1111122 
DISL,ioos:station:DISL:MBLA:1,2017-01-05T07:30:00Z,30.4367,-88.0117,76.65,1111122 
DISL,ioos:station:DISL:MBLA:1,2017-01-05T08:00:00Z,30.4367,-88.0117,77.03,1111122 
DISL,ioos:station:DISL:MBLA:1,2017-01-05T08:30:00Z,30.4367,-88.0117,77.91,1111122 
DISL,ioos:station:DISL:MBLA:1,2017-01-05T09:00:00Z,30.4367,-88.0117,77.41,1111122 
DISL,ioos:station:DISL:MBLA:1,2017-01-05T09:30:00Z,30.4367,-88.0117,78.29,1111122 
DISL,ioos:station:DISL:MBLA:1,2017-01-05T10:00:00Z,30.4367,-88.0117,77.95,1111122 
DISL,ioos:station:DISL:MBLA:1,2017-01-05T10:30:00Z,30.4367,-88.0117,79.71,1111122 
DISL,ioos:station:DISL:MBLA:1,2017-01-05T11:00:00Z,30.4367,-88.0117,80.2,1111122 
DISL,ioos:station:DISL:MBLA:1,2017-01-05T11:30:00Z,30.4367,-88.0117,79.07,1111122 
DISL,ioos:station:DISL:MBLA:1,2017-01-05T12:00:00Z,30.4367,-88.0117,79.71,1111122 
DISL,ioos:station:DISL:MBLA:1,2017-01-05T12:30:00Z,30.4367,-88.0117,80.7,1111122 
DISL,ioos:station:DISL:MBLA:1,2017-01-05T13:00:00Z,30.4367,-88.0117,80.8,1111122 
DISL,ioos:station:DISL:MBLA:1,2017-01-05T13:30:00Z,30.4367,-88.0117,78.58,1111122 
DISL,ioos:station:DISL:MBLA:1,2017-01-05T14:00:00Z,30.4367,-88.0117,79.22,1111122 
DISL,ioos:station:DISL:MBLA:1,2017-01-05T14:30:00Z,30.4367,-88.0117,73.85,1111122 
DISL,ioos:station:DISL:MBLA:1,2017-01-05T15:00:00Z,30.4367,-88.0117,70.38,1111122 
DISL,ioos:station:DISL:MBLA:1,2017-01-05T15:30:00Z,30.4367,-88.0117,65.08,1111122 
DISL,ioos:station:DISL:MBLA:1,2017-01-05T16:00:00Z,30.4367,-88.0117,65.11,1111122 
DISL,ioos:station:DISL:MBLA:1,2017-01-05T16:30:00Z,30.4367,-88.0117,64.0,1111122 
DISL,ioos:station:DISL:MBLA:1,2017-01-05T17:00:00Z,30.4367,-88.0117,66.24,1111122 
DISL,ioos:station:DISL:MBLA:1,2017-01-05T17:30:00Z,30.4367,-88.0117,61.9,1111122 
DISL,ioos:station:DISL:MBLA:1,2017-01-05T18:00:00Z,30.4367,-88.0117,70.4,1111122 
DISL,ioos:station:DISL:MBLA:1,2017-01-05T18:30:00Z,30.4367,-88.0117,79.86,1111122 
DISL,ioos:station:DISL:MBLA:1,2017-01-05T19:00:00Z,30.4367,-88.0117,79.93,1111122 
DISL,ioos:station:DISL:MBLA:1,2017-01-05T19:30:00Z,30.4367,-88.0117,79.02,1111122 
DISL,ioos:station:DISL:MBLA:1,2017-01-05T20:00:00Z,30.4367,-88.0117,79.43,1111122 
DISL,ioos:station:DISL:MBLA:1,2017-01-05T20:30:00Z,30.4367,-88.0117,78.34,1111122 
DISL,ioos:station:DISL:MBLA:1,2017-01-05T21:00:00Z,30.4367,-88.0117,78.45,1111122 
DISL,ioos:station:DISL:MBLA:1,2017-01-05T21:30:00Z,30.4367,-88.0117,80.7,1111122 
DISL,ioos:station:DISL:MBLA:1,2017-01-05T22:00:00Z,30.4367,-88.0117,80.7,1111122 
DISL,ioos:station:DISL:MBLA:1,2017-01-05T22:30:00Z,30.4367,-88.0117,79.96,1111122 
DISL,ioos:station:DISL:MBLA:1,2017-01-05T23:00:00Z,30.4367,-88.0117,77.11,1111122 
DISL,ioos:station:DISL:MBLA:1,2017-01-05T23:30:00Z,30.4367,-88.0117,78.06,1111122 
DISL,ioos:station:DISL:MBLA:1,2017-01-06T00:00:00Z,30.4367,-88.0117,77.58,1111122 
DISL,ioos:station:DISL:MBLA:1,2017-01-06T00:30:00Z,30.4367,-88.0117,78.7,1111122 
DISL,ioos:station:DISL:MBLA:1,2017-01-06T01:00:00Z,30.4367,-88.0117,84.3,1111122 
DISL,ioos:station:DISL:MBLA:1,2017-01-06T01:30:00Z,30.4367,-88.0117,83.3,1111122 
DISL,ioos:station:DISL:MBLA:1,2017-01-06T02:00:00Z,30.4367,-88.0117,84.9,1111122 
DISL,ioos:station:DISL:MBLA:1,2017-01-06T02:30:00Z,30.4367,-88.0117,86.6,1111122 
DISL,ioos:station:DISL:MBLA:1,2017-01-06T03:00:00Z,30.4367,-88.0117,88.2,1111122 
DISL,ioos:station:DISL:MBLA:1,2017-01-06T03:30:00Z,30.4367,-88.0117,88.7,1111122 
DISL,ioos:station:DISL:MBLA:1,2017-01-06T04:00:00Z,30.4367,-88.0117,90.7,1111122 
DISL,ioos:station:DISL:MBLA:1,2017-01-06T04:30:00Z,30.4367,-88.0117,92.0,1111122 
DISL,ioos:station:DISL:MBLA:1,2017-01-06T05:00:00Z,30.4367,-88.0117,91.0,1111122 
DISL,ioos:station:DISL:MBLA:1,2017-01-06T05:30:00Z,30.4367,-88.0117,91.1,1111122 
DISL,ioos:station:DISL:MBLA:1,2017-01-06T06:00:00Z,30.4367,-88.0117,91.7,1111122 
DISL,ioos:station:DISL:MBLA:1,2017-01-06T06:30:00Z,30.4367,-88.0117,93.3,1111122 
DISL,ioos:station:DISL:MBLA:1,2017-01-06T07:00:00Z,30.4367,-88.0117,93.2,1111122 
DISL,ioos:station:DISL:MBLA:1,2017-01-06T07:30:00Z,30.4367,-88.0117,93.1,1111122 
DISL,ioos:station:DISL:MBLA:1,2017-01-06T08:00:00Z,30.4367,-88.0117,92.2,1111122 
DISL,ioos:station:DISL:MBLA:1,2017-01-06T08:30:00Z,30.4367,-88.0117,92.6,1111122 
DISL,ioos:station:DISL:MBLA:1,2017-01-06T09:00:00Z,30.4367,-88.0117,92.0,1111122 
DISL,ioos:station:DISL:MBLA:1,2017-01-06T09:30:00Z,30.4367,-88.0117,93.3,1111122 
DISL,ioos:station:DISL:MBLA:1,2017-01-06T10:00:00Z,30.4367,-88.0117,92.3,1111122 
DISL,ioos:station:DISL:MBLA:1,2017-01-06T10:30:00Z,30.4367,-88.0117,91.9,1111122 
DISL,ioos:station:DISL:MBLA:1,2017-01-06T11:00:00Z,30.4367,-88.0117,89.9,1111122 
DISL,ioos:station:DISL:MBLA:1,2017-01-06T11:30:00Z,30.4367,-88.0117,87.2,1111122 
DISL,ioos:station:DISL:MBLA:1,2017-01-06T12:00:00Z,30.4367,-88.0117,87.3,1111122 
DISL,ioos:station:DISL:MBLA:1,2017-01-06T12:30:00Z,30.4367,-88.0117,93.4,1111122 
DISL,ioos:station:DISL:MBLA:1,2017-01-06T13:00:00Z,30.4367,-88.0117,94.7,1111122 
DISL,ioos:station:DISL:MBLA:1,2017-01-06T13:30:00Z,30.4367,-88.0117,94.1,1111122 
DISL,ioos:station:DISL:MBLA:1,2017-01-06T14:00:00Z,30.4367,-88.0117,90.9,1111122 
DISL,ioos:station:DISL:MBLA:1,2017-01-06T14:30:00Z,30.4367,-88.0117,89.2,1111122 
DISL,ioos:station:DISL:MBLA:1,2017-01-06T15:00:00Z,30.4367,-88.0117,89.7,1111122 
DISL,ioos:station:DISL:MBLA:1,2017-01-06T15:30:00Z,30.4367,-88.0117,89.6,1111122 
DISL,ioos:station:DISL:MBLA:1,2017-01-06T16:00:00Z,30.4367,-88.0117,88.2,1111122 
DISL,ioos:station:DISL:MBLA:1,2017-01-06T16:30:00Z,30.4367,-88.0117,89.5,1111122 
DISL,ioos:station:DISL:MBLA:1,2017-01-06T17:00:00Z,30.4367,-88.0117,89.3,1111122 
DISL,ioos:station:DISL:MBLA:1,2017-01-06T17:30:00Z,30.4367,-88.0117,89.3,1111122 
DISL,ioos:station:DISL:MBLA:1,2017-01-06T18:00:00Z,30.4367,-88.0117,91.0,1111122 
DISL,ioos:station:DISL:MBLA:1,2017-01-06T18:30:00Z,30.4367,-88.0117,90.2,1111122 
DISL,ioos:station:DISL:MBLA:1,2017-01-06T19:00:00Z,30.4367,-88.0117,88.9,1111122 
DISL,ioos:station:DISL:MBLA:1,2017-01-06T19:30:00Z,30.4367,-88.0117,89.8,1111122 
DISL,ioos:station:DISL:MBLA:1,2017-01-06T20:00:00Z,30.4367,-88.0117,90.9,1111122 
DISL,ioos:station:DISL:MBLA:1,2017-01-06T20:30:00Z,30.4367,-88.0117,92.0,1111122 
DISL,ioos:station:DISL:MBLA:1,2017-01-06T21:00:00Z,30.4367,-88.0117,92.1,1111122 
DISL,ioos:station:DISL:MBLA:1,2017-01-06T21:30:00Z,30.4367,-88.0117,93.5,1111122 
DISL,ioos:station:DISL:MBLA:1,2017-01-06T22:00:00Z,30.4367,-88.0117,92.7,1111122 
DISL,ioos:station:DISL:MBLA:1,2017-01-06T22:30:00Z,30.4367,-88.0117,92.6,1111122 
DISL,ioos:station:DISL:MBLA:1,2017-01-06T23:00:00Z,30.4367,-88.0117,92.6,1111122 
DISL,ioos:station:DISL:MBLA:1,2017-01-06T23:30:00Z,30.4367,-88.0117,89.2,1111122 
DISL,ioos:station:DISL:MBLA:1,2017-01-07T00:00:00Z,30.4367,-88.0117,90.4,1111122 
DISL,ioos:station:DISL:MBLA:1,2017-01-07T00:30:00Z,30.4367,-88.0117,92.0,1111122 
DISL,ioos:station:DISL:MBLA:1,2017-01-07T01:00:00Z,30.4367,-88.0117,92.6,1111122 
DISL,ioos:station:DISL:MBLA:1,2017-01-07T01:30:00Z,30.4367,-88.0117,90.0,1111122 
DISL,ioos:station:DISL:MBLA:1,2017-01-07T02:00:00Z,30.4367,-88.0117,86.8,1111122 
DISL,ioos:station:DISL:MBLA:1,2017-01-07T02:30:00Z,30.4367,-88.0117,88.7,1111122 
DISL,ioos:station:DISL:MBLA:1,2017-01-07T03:00:00Z,30.4367,-88.0117,91.6,1111122 
DISL,ioos:station:DISL:MBLA:1,2017-01-07T03:30:00Z,30.4367,-88.0117,89.4,1111122 